Weather History for Nausori, Fiji

Change the Weather History Date:

Monday, April 7, 2014

  Actual Average Record
Temperature  
Mean Temperature 76 °F -  
Max Temperature 84 °F - - ()
Min Temperature 68 °F - - ()
Cooling Degree Days 11    
Growing Degree Days 26 (Base 50)    
Moisture  
Dew Point 70 °F    
Average Humidity 80    
Maximum Humidity 100    
Minimum Humidity 50    
Precipitation  
Precipitation 0.00 in - - ()
Sea Level Pressure  
Sea Level Pressure 29.86 in    
Wind  
Wind Speed 1 mph ()    
Max Wind Speed 7 mph    
Max Gust Speed -    
Visibility 7.3 miles    
Events      
T = Trace of Precipitation, MM = Missing Value Source: Averaged Metar Reports

Daily Weather History Graph

Daily Weather History Graph

Search for Another Location

Airport:

Trip Planner

Search our weather history database for the weather conditions in past years. The results will help you decide how hot, cold, wet, or windy it might be!

Date:

Astronomy

Apr. 07, 2014 Rise Set
Actual Time 6:13 AM FJT 6:02 PM FJT
Civil Twilight 5:51 AM FJT 6:24 PM FJT
Nautical Twilight 5:26 AM FJT 6:49 PM FJT
Astronomical Twilight 5:00 AM FJT 7:14 PM FJT
Moon 12:25 PM FJT (4/7) 11:59 PM FJT (4/7)
Length of Visible Light 12h 33m
Length of Day
11h 49m
Waxing Crescent, 47% of the Moon is Illuminated
Apr 7
Waxing Crescent
Apr 7
First Quarter
Apr 15
Full
Apr 22
Last Quarter
Apr 29
New

Hourly Weather History & Observations

Time (FJT) Temp. Heat Index Dew Point Humidity Pressure Visibility Wind Dir Wind Speed Gust Speed Precip Events Conditions
12:00 AM 72 °F - 71 °F 94% 29.87 in 12 mi Calm Calm - -   Partly Cloudy
12:00 AM 73.4 °F - 69.8 °F 88% 29.86 in 6.2 mi Calm Calm - N/A   Scattered Clouds
1:00 AM 71.6 °F - 71.6 °F 100% 29.86 in 6.2 mi Calm Calm - N/A   Scattered Clouds
2:00 AM 71.6 °F - 69.8 °F 94% 29.83 in 6.2 mi Calm Calm - N/A   Scattered Clouds
3:00 AM 71 °F - 69 °F 92% 29.83 in 12 mi Calm Calm - -   Partly Cloudy
3:00 AM 71.6 °F - 69.8 °F 94% 29.83 in 6.2 mi Calm Calm - N/A   Scattered Clouds
4:00 AM 69.8 °F - 69.8 °F 100% 29.83 in 6.2 mi Calm Calm - N/A   Partly Cloudy
5:00 AM 69.8 °F - 68.0 °F 94% 29.83 in 6.2 mi Calm Calm - N/A   Partly Cloudy
6:00 AM 68 °F - 68 °F 100% 29.83 in 12 mi Calm Calm - -   Partly Cloudy
6:00 AM 68.0 °F - 68.0 °F 100% 29.83 in 24.9 mi Calm Calm - N/A   Partly Cloudy
7:00 AM 69.8 °F - 68.0 °F 94% 29.86 in 31.1 mi Calm Calm - N/A   Partly Cloudy
8:00 AM 73.4 °F - 71.6 °F 94% 29.89 in 31.1 mi Calm Calm - N/A   Partly Cloudy
9:00 AM 78 °F - 73 °F 79% 29.91 in 31 mi 2.3 mph - -   Partly Cloudy
9:00 AM 78.8 °F - 73.4 °F 83% 29.89 in 6.2 mi Variable 2.3 mph - N/A   Partly Cloudy
10:00 AM 82.4 °F 86.3 °F 69.8 °F 66% 29.89 in 6.2 mi SSE 5.8 mph - N/A   Scattered Clouds
11:00 AM 84.2 °F 87.3 °F 68.0 °F 58% 29.89 in 6.2 mi ESE 5.8 mph - N/A   Scattered Clouds
12:00 PM 84 °F - 68 °F 50% 29.87 in 31 mi ESE 6.9 mph - -   Partly Cloudy
12:00 PM 84.2 °F 87.3 °F 68.0 °F 58% 29.86 in 6.2 mi ESE 6.9 mph - N/A   Mostly Cloudy
12:45 PM 82.4 °F 86.3 °F 69.8 °F 66% 29.83 in 31.1 mi ESE 5.8 mph - N/A   Scattered Clouds
1:00 PM 82.4 °F 86.3 °F 69.8 °F 66% 29.83 in 31.1 mi ESE 5.8 mph - N/A   Scattered Clouds
2:00 PM 82.4 °F 84.6 °F 66.2 °F 58% 29.83 in 31.1 mi ESE 5.8 mph - N/A   Scattered Clouds
3:00 PM 83 °F - 69 °F 53% 29.85 in 31 mi ESE 5.8 mph - -   Partly Cloudy
3:00 PM 82.4 °F 85.4 °F 68.0 °F 62% 29.83 in 31.1 mi ESE 5.8 mph - N/A   Scattered Clouds
4:00 PM 82.4 °F 86.3 °F 69.8 °F 66% 29.83 in 31.1 mi ESE 5.8 mph - N/A   Scattered Clouds
5:00 PM 80.6 °F 84.6 °F 71.6 °F 74% 29.83 in 31.1 mi ESE 5.8 mph - N/A   Scattered Clouds
6:00 PM 79 °F - 68 °F 61% 29.87 in 31 mi Calm Calm - -   Partly Cloudy
6:00 PM 78.8 °F - 68.0 °F 69% 29.86 in 31.1 mi Calm Calm - N/A   Scattered Clouds
7:00 PM 78.8 °F - 71.6 °F 78% 29.86 in 31.1 mi Calm Calm - N/A   Scattered Clouds
8:00 PM 77.0 °F - 71.6 °F 83% 29.86 in 31.1 mi Calm Calm - N/A   Scattered Clouds
9:00 PM 75 °F - 72 °F 87% 29.91 in 31 mi Calm Calm - -   Partly Cloudy
9:00 PM 75.2 °F - 71.6 °F 89% 29.89 in 6.2 mi Calm Calm - N/A   Scattered Clouds
10:00 PM 75.2 °F - 73.4 °F 94% 29.92 in 6.2 mi Calm Calm - N/A   Scattered Clouds
11:00 PM 73.4 °F - 71.6 °F 94% 29.89 in 6.2 mi Variable 3.5 mph - N/A   Mostly Cloudy